Location: Blue Mountain Vista Observatory
(40.6992°N, 75.9422°W)
Time: 07:46:11
(UTC-04:00)

Daily predictions for brighter satellites

Satellite Brightness Start Highest point End
(mag) Time Altitude Azimuth Time Altitude Azimuth Time Altitude Azimuth
Cosmos 1464 Rocket 4.1 20:45:40 10° N 20:51:46 64° E 20:57:53 10° SSE
Cosmos 2297 4.2 20:47:31 10° NNW 20:53:11 66° WSW 20:58:50 10° S
Meteor 2-4 Rocket 3.9 20:47:49 10° S 20:53:40 78° E 20:59:38 10° NNE
YAOGAN 11 4.1 20:50:52 10° SSE 20:55:13 84° ENE 20:59:33 10° NNW
GEOS 3 Rocket 3.7 20:51:27 10° SE 20:56:44 88° NE 21:02:00 10° NW
Aureole 2 Rocket 2.5 20:54:10 10° SSW 20:58:05 82° ESE 21:01:39 10° NNE
Cosmos 1943 4.5 20:55:29 10° SE 20:59:27 20° E 21:03:26 10° NE
Cosmos 1606 Rocket 4.4 20:55:44 10° NNW 21:00:04 53° W 21:04:20 10° S
Cosmos 1302 Rocket 4.0 20:55:00 10° NNW 21:00:16 76° ENE 21:05:30 10° SSE
deb Chang Zheng 4 3.8 20:56:27 10° NNE 21:00:46 53° E 21:05:01 10° S
ATLAS 3B R/B 3.8 20:57:43 10° SSE 21:03:42 25° ESE 21:09:39 10° ENE
H-2A R/B 2.1 21:03:28 10° SSE 21:07:40 64° ENE 21:12:00 10° N
H-2A R/B 3.6 21:03:55 10° S 21:07:46 53° W 21:11:41 10° NNW
Cosmos 2034 Rocket 4.1 21:05:21 10° N 21:11:43 69° E 21:18:00 10° SSE
DEBRIS 2.7 21:07:35 10° WNW 21:13:47 90° NNE 21:15:59 12° ESE
Cosmos 1626 Rocket 3.6 21:11:19 10° S 21:15:41 61° E 21:20:03 10° NNE
Abrixas rocket 3.6 21:15:07 10° WNW 21:18:12 31° SW 21:21:08 11° SSE
GRACE-1 4.5 21:16:51 10° NNE 21:19:35 39° E 21:22:03 12° SSE
Cosmos 2228 3.2 21:15:14 10° N 21:19:40 80° W 21:24:04 10° S
GRACE-2 4.5 21:17:18 10° NNE 21:20:02 39° E 21:22:29 12° SSE
Okean 2 4.4 21:18:37 10° SSW 21:22:42 51° W 21:26:47 10° N
USA 234 4.1 21:17:23 10° E 21:23:31 44° NNE 21:29:40 10° NW
ERS-1 Rocket 3.2 21:18:48 10° S 21:23:48 73° WSW 21:28:50 10° NNW
ISS -3.4 21:20:44 10° SW 21:23:58 62° SE 21:27:12 10° ENE
ALOS 3.9 21:26:00 10° SSW 21:30:09 32° W 21:34:21 10° NNW
Milstar 3 Cent rocket 4.2 21:27:13 10° WSW 21:31:56 17° SSW 21:35:29 10° S
Lacrosse 4 Rocket 2.7 21:30:12 15° SE 21:32:03 20° ESE 21:35:03 10° ENE
PSLV R/B 3.3 21:28:50 10° WSW 21:32:22 78° SSE 21:35:56 10° E
Envisat 3.0 21:28:22 10° SSE 21:33:23 73° ENE 21:38:28 10° N
Nimbus 7 Rocket 4.4 21:28:56 10° NNE 21:34:55 79° ESE 21:40:48 10° SSW
ARGOS 4.2 21:32:56 14° ESE 21:36:46 31° ENE 21:41:30 10° N
SPOT 5 2.6 21:34:22 13° SSE 21:38:11 68° ENE 21:42:29 10° N
CZ-2C R/B 3.1 21:36:58 10° SW 21:38:41 18° W 21:40:24 10° NW
Cosmos 2369 Rocket 2.8 21:37:35 10° NNW 21:43:00 43° ENE 21:46:53 18° SE
Cosmos 1238 4.1 21:41:59 13° S 21:44:42 68° E 21:47:42 10° NNE
CZ-4 SHROUD 3.2 21:43:52 17° S 21:46:11 83° WSW 21:49:21 10° NNW
Cosmos 1666 4.3 21:43:03 10° NNW 21:46:37 34° W 21:50:10 10° SSW
MetOp-B 4.2 21:45:58 16° SSE 21:50:15 69° ENE 21:55:36 10° N
Terra 3.7 21:48:14 12° E 21:50:35 17° ENE 21:53:36 10° NNE
Cosmos 1461 4.3 21:50:25 10° NW 21:54:12 32° WSW 21:57:21 13° S
PSLV R/B 4.0 22:01:57 19° SSW 22:03:55 45° W 22:06:56 10° NNW
USA 81 4.1 21:58:39 10° N 22:03:56 68° E 22:07:23 22° SSE
Atlas Centaur 2 3.4 21:57:38 10° WSW 22:04:31 39° S 22:09:41 20° ESE
Cosmos 1758 Rocket 4.0 22:06:49 28° SE 22:08:37 42° E 22:12:45 10° NNE
CZ-4C R/B 4.2 22:07:54 27° ESE 22:09:30 38° ENE 22:13:16 10° N
Cosmos 1992 Rocket 4.0 22:04:24 10° NNW 22:09:39 86° WSW 22:12:51 24° SSE
Cosmos 1900 4.5 22:11:17 12° S 22:15:58 54° ESE 22:20:59 10° NE
COSMOS 2406 4.4 22:15:40 21° ESE 22:16:12 22° E 22:20:27 10° NE
Cosmos 1515 4.4 22:13:45 12° SSW 22:17:15 54° W 22:21:03 10° N
YAOGAN 6 2.7 22:17:10 31° S 22:18:50 76° WSW 22:22:35 10° NNW
Cosmos 1066 Rocket 4.2 22:16:11 13° S 22:21:17 89° W 22:27:08 10° N
Meteor 1-22 Rocket 4.2 22:16:05 10° N 22:21:42 74° E 22:24:51 28° SSE
SeaSat 1 3.0 22:21:30 23° S 22:24:24 53° WSW 22:29:15 10° NW
Cosmos 1825 Rocket 3.8 22:22:14 17° SSW 22:25:37 69° W 22:30:03 10° N
Geosat 4.2 22:21:49 10° NE 22:26:42 49° ESE 22:28:49 30° S
Cosmos 1953 3.6 22:23:38 10° NNE 22:26:59 25° ENE 22:27:23 25° E
H-2A R/B 2.6 22:26:31 30° ESE 22:28:21 42° ENE 22:33:06 10° N
Cosmos 1190 Rocket 4.1 22:25:56 10° SSW 22:31:14 79° WNW 22:36:35 10° NNE
COSMOS 2455 4.0 22:29:57 10° SW 22:35:37 43° NW 22:41:22 10° NNE
CZ-4B R/B 4.1 22:30:56 10° N 22:35:55 56° WNW 22:41:00 10° SSW
SPOT 1/Viking Rocket 3.9 22:34:19 25° S 22:37:13 61° WSW 22:42:20 10° NNW
SAR-Lupe-2 3.8 22:40:04 49° E 22:40:18 50° ENE 22:43:47 10° N
Cosmos 1943 3.8 22:37:26 10° SW 22:42:59 57° WNW 22:48:37 10° NNE
Cosmos 1346 Rocket 3.3 22:41:40 27° SW 22:43:34 55° WNW 22:47:27 10° N
Cosmos 1943 Rocket 2.5 22:38:42 10° NNW 22:44:09 53° ENE 22:46:09 36° ESE
Cosmos 676 Rocket 4.0 22:44:54 25° SSW 22:48:04 88° ESE 22:53:26 10° NNE
Cosmos 1140 Rocket 3.9 22:48:29 41° SE 22:49:12 43° ESE 22:54:10 10° NNE
Nadezhda 4 Rocket 4.4 22:47:43 35° SE 22:49:43 46° E 22:55:43 10° NNE
ATLAS 3B R/B 3.2 22:46:11 10° SW 22:53:53 72° NW 23:01:25 10° NNE
Spot 2 4.4 22:49:53 10° NNE 22:54:42 63° ESE 22:55:49 49° SSE
Cosmos 1842 3.1 22:54:29 71° S 22:54:53 85° E 22:58:49 10° N
SL-08 RB Rocket 4.1 22:53:21 37° SSW 22:54:54 57° W 22:59:22 10° NNW
DMSP B5D2-2 4.1 22:52:20 10° NNE 22:57:36 65° ESE 22:58:58 47° SSE
IGS 5A 3.4 22:58:19 63° ESE 22:58:45 69° ENE 23:02:54 10° N
Meteor 1-21 4.4 22:55:45 26° SSW 22:59:08 74° W 23:04:58 10° N
ISS -0.7 22:58:00 10° WNW 23:00:38 22° NNW 23:03:17 10° NNE
Cosmos 2084 3.7 23:02:14 10° NNW 23:06:19 54° NE 23:06:47 51° E
USA 234 3.4 23:03:51 38° SSE 23:06:20 62° SW 23:12:51 10° NW
PSLV R/B 4.0 23:06:29 10° W 23:09:13 50° W 23:09:13 50° W
Lacrosse 4 Rocket 3.0 23:06:50 10° WSW 23:10:32 33° NW 23:14:17 10° N
CZ-4C R/B 3.8 23:13:38 18° E 23:13:38 18° E 23:16:07 10° ENE
Landsat 7 4.3 23:10:50 42° SSW 23:12:04 54° W 23:16:45 10° NNW
Cosmos 1758 3.2 23:09:25 10° N 23:13:33 89° E 23:13:37 87° SSE
Cosmos 614 Rocket 4.3 23:16:09 47° ESE 23:16:09 47° ESE 23:21:08 10° NNE
ARGOS 4.4 23:14:27 23° SW 23:16:54 34° W 23:21:50 10° NNW
Spot 4 3.7 23:17:06 64° S 23:17:50 85° WSW 23:22:38 10° NNW
Cosmos 1766 4.4 23:14:22 10° NNW 23:18:02 35° W 23:18:39 33° WSW
Meteor 2-5 Rocket 4.4 23:17:29 38° ESE 23:18:04 39° E 23:23:24 10° NNE
Cosmos 2279 Rocket 4.4 23:12:33 10° NNW 23:18:39 56° W 23:21:23 32° SSW
SL-27 R/B 3.2 23:20:32 48° NNW 23:20:32 48° NNW 23:23:18 10° N
Cosmos 2221 4.2 23:18:03 10° NNE 23:21:11 22° ENE 23:21:11 22° ENE
Cosmos-2242 3.4 23:20:08 10° NNW 23:24:26 54° W 23:24:56 50° WSW
Cosmos 2369 Rocket 3.7 23:22:09 10° NW 23:26:44 26° WSW 23:28:41 21° SW
Terra 2.2 23:27:07 48° SW 23:27:53 53° W 23:32:33 10° NNW
Cosmos 1607 3.8 23:29:24 50° S 23:31:05 73° ESE 23:37:17 10° NE
USA 238 DEB 3.7 23:28:44 22° SW 23:33:43 86° NW 23:40:50 10° NE
USA 238 3.7 23:28:57 22° SW 23:33:49 87° NW 23:40:56 10° NE
Cosmos 2208 Rocket 3.8 23:35:05 10° NNW 23:40:17 82° WSW 23:40:44 73° SSW
Okean 3 Rocket 3.9 23:43:49 57° NE 23:43:49 57° NE 23:47:37 10° NNE
CZ-4B R/B 3.9 23:44:03 17° NE 23:44:03 17° NE 23:45:57 10° NNE
Cosmos 1470 3.4 23:42:09 10° N 23:45:11 51° NNE 23:45:11 51° NNE
Cosmos 1805 4.5 23:45:41 10° NNW 23:49:00 36° W 23:49:00 36° W
Cosmos 1340 3.7 23:51:21 44° NNE 23:51:21 44° NNE 23:54:01 10° N
